sat.trackr.live / text

‹ back to catalog

STARLINK-2639

NORAD 48436 · 2021-040J

PAYLOAD ACTIVE UNKNOWN

§ Identity

Operator
Country
US
Launch date
2021-05-09
Launch site
AFETR
Launch vehicle
Mass (kg)
RCS (m²)

Purposes: comms

External: N2YO · Heavens-Above · Gunter

§ Orbital elements

Epoch: 2026-09-04T00:48:36.627264Z

Period
94.01 min
Inclination
53.1604°
Eccentricity
0.0001290
Mean motion
15.31710365 rev/d
Perigee alt
469.8 km
Apogee alt
471.6 km
Semi-major
6,848.8 km
B*
5.8323e-5
RAAN
68.1970°
Arg perigee
73.6315°
Mean anomaly
286.4828°
Rev number
29,400

§ Raw data

STARLINK-26391 48436U 21040J   26247.03375726  .00001446  00000+0  58323-4 0  99952 48436  53.1604  68.1970 0001290  73.6315 286.4828 15.31710365294009

JSON: /api/v1/satellites/48436 · /tle

For live sub-satellite position, see the globe view (requires WebGL).

§ Visibility from observer

Set your observer location to see the next 7 days of passes ≥ 10°. The values pass through the URL so the page stays shareable.

No JS? Fill the form by hand. The geolocation button needs JavaScript.